Location: Newark
(21.1200°N, 73.4000°E)
Time: 10:26:12
(UTC+00:00)

Vanguard 1 Rocket - Pass Details

Date: 22 January 2021
Orbit: 654 x 4223 km, 34.3° (Epoch: 07 March)

Event Time Altitude Azimuth Distance (km) Brightness Sun altitude
Rises 15:02:28 0° 278° (W) 4,143 11.8 -30.5°
Reaches altitude 10° 15:05:11 10° 267° (W) 3,516 11.3 -31.1°
Maximum altitude 15:13:12 31° 208° (SSW) 3,145 10.3 -32.9°
Drops below altitude 10° 15:26:55 10° 154° (SSE) 6,047 11.4 -36.1°
Sets 15:33:41 0° 146° (SE) 7,634 11.9 -37.6°
